Weather Roundup
Issued by NWS Springfield, MO

Home | Current Version | Previous Version | Text Only | Print | Product List | Glossary On
Versions: 1 2 3 4 5 6 7 8 9 10 11 12 13 14 15 16 17 18 19 20 21 22 23 24 25 26 27 28 29 30 31 32 33 34 35 36 37 38 39 40 41 42 43 44 45 46 47 48 49 50
000
NZUS99 KSGF 032207
HRRSGF

HOURLY WEATHER
NATIONAL WEATHER SERVICE SPRINGFIELD MO
500 PM CDT FRI JUL 03 2015

......SGF CWA......

CITY           SKY/WX    TMP DP  RH WIND       PRES   REMARKS
SPRINGFIELD    MOSUNNY   79  67  66 NE13      29.90S
JOPLIN         PTSUNNY   74  66  76 N7        29.92R
WEST PLAINS    PTSUNNY   77  68  73 E3        29.91F
ROLLA          SUNNY     79  61  53 VRB6      29.90F
OSAGE BEACH    PTSUNNY   79  63  57 N5        29.91S
BRANSON        CLOUDY    73  72  94 N6        29.91S

......SURROUNDING SGF CWA......

CITY           SKY/WX    TMP DP  RH WIND       PRES   REMARKS
CHANUTE        CLOUDY    81  67  62 NE13G20   29.91S
PARSONS        CLOUDY    82  72  71 NE8       29.91F
COFFEYVILLE    SUNNY     85  71  63 NE15      29.88S HX  90
EMPORIA        CLOUDY    79  65  62 NE8       29.94F
GROVE OK       PTSUNNY   79  70  73 E3        29.89S
ROGERS AR      RAIN      71  67  87 W10G20    29.94R FOG
SILOAM SPRINGS PTSUNNY   84  70  61 W7        29.90S
HARRISON AR    LGT RAIN  75  68  78 NE5       29.90R
NEAR YELLVILLE   N/A     79  70  73 E6        29.86R

......KANSAS AND MISSOURI......

CITY           SKY/WX    TMP DP  RH WIND       PRES   REMARKS
KANSAS CTY INT SUNNY     79  54  41 N6        29.95F
DOWNTOWN KC    SUNNY     81  58  45 N8        29.93F
COLUMBIA       MOSUNNY   80  61  52 NE8       29.92F
SEDALIA        SUNNY     80  61  52 N7        29.94F
ST JOSEPH      SUNNY     80  58  46 NE6       29.95F
ST LOUIS       MOSUNNY   82  63  52 N10       29.89F
SPIRIT OF STL  MOSUNNY   82  62  50 N6        29.88F
KIRKSVILLE     SUNNY     79  59  50 VRB3      29.95F
WICHITA        MOSUNNY   85  62  46 NE10G20   29.93F
TOPEKA         SUNNY     80  59  48 NE7       29.95S
OLATHE         SUNNY     79  58  48 NE10      29.93F

......TENNESSEE......

CITY           SKY/WX    TMP DP  RH WIND       PRES   REMARKS
MEMPHIS        CLOUDY    77  72  84 SW8       29.91S
NASHVILLE      CLOUDY    77  69  76 W13G21    29.89F

......ARKANSAS.......

CITY           SKY/WX    TMP DP  RH WIND       PRES   REMARKS
FAYETTEVILLE   PTSUNNY   80  71  74 W7        29.89R
FT SMITH       PTSUNNY   87  71  58 SW10      29.85F HX  93
LITTLE ROCK    LGT RAIN  73  69  87 SW12      29.92R

......OKLAHOMA.......

CITY           SKY/WX    TMP DP  RH WIND       PRES   REMARKS
TULSA          MOSUNNY   91  67  44 NW12      29.86S HX  94
PONCA CITY     SUNNY     90  62  39 N12       29.89F HX  90
MCALESTER      MOSUNNY   89  75  63 SW10      29.88F HX  99
OKLAHOMA CITY  PTSUNNY   85  69  58 S13       29.92S

......IOWA............

CITY           SKY/WX    TMP DP  RH WIND       PRES   REMARKS
DES MOINES     SUNNY     78  54  43 VRB5      29.95F
QUAD CITIES    SUNNY     77  57  50 CALM      29.92F

......ILLINOIS........

CITY           SKY/WX    TMP DP  RH WIND       PRES   REMARKS
QUINCY         SUNNY     80  58  46 N5        29.92F
CHICAGO        PTSUNNY   75  53  46 E8        29.92F



USA.gov is the U.S. government's official web portal to all federal, state and local government web resources and services.